User: anonymous   Login
Location: ??? ???
(33.4974°N, 35.4618°E)
Time: 21:35:46
(UTC+00:00)
Language:

SL-16 R/B - Orbit

View from above orbital plane
View from above orbital plane
View from above satellite
View from above satellite

Ground track
Ground track

The orbit data is extracted from the following two-line orbital elements,

1 31793U 07029B   21016.49774462  .00000143  00000-0  99407-4 0  9995
2 31793  70.9761 158.8305 0002591 277.6495 142.9248 14.14443777699783
Epoch (UTC): 16 January 2021 11:56:45
Eccentricity: 0.0002591
inclination: 70.9761°
perigee height: 842 km
apogee height: 846 km
right ascension of ascending node: 158.8305°
argument of perigee: 277.6495°
revolutions per day: 14.14443777
mean anomaly at epoch: 142.9248°
orbit number at epoch: 69978

The dashed part of the orbit path shows where the satellite is in the earth's shadow,  

DLR